Total_Precipitation_Accumulation
2.32 2.39 2.28 2.22 2.10 2.08 2.06 1.96 1.87 1.88 1.77 1.59 1.34 1.31 1.35 1.27 1.32 1.51 1.58 1.61 1.64 1.95 2.40 2.65 2.57 2.36 2.32 2.35 2.37 2.29 2.08 1.90 1.75 1.60 1.42 1.25 1.16 1.09 0.98 0.94 0.91 0.87 0.84
2.59 2.67 2.62 2.52 2.43 2.38 2.44 2.28 2.07 2.22 2.06 1.97 1.76 1.67 1.62 1.65 1.61 1.71 1.91 1.90 1.69 1.73 2.08 2.51 2.71 2.72 2.73 2.66 2.56 2.39 2.20 2.05 1.98 1.91 1.76 1.56 1.40 1.27 1.16 1.12 1.03 0.96 0.92
2.69 2.77 2.93 2.83 2.75 2.69 2.70 2.64 2.53 2.58 2.35 2.21 2.05 1.93 1.88 1.97 1.96 1.89 2.05 2.19 1.96 1.90 1.91 2.09 2.36 2.60 2.79 2.87 2.84 2.71 2.51 2.31 2.17 2.14 2.08 1.93 1.74 1.62 1.51 1.37 1.26 1.21 1.18
2.81 3.09 3.17 3.11 3.11 2.98 3.04 3.13 3.07 2.88 2.73 2.54 2.34 2.07 1.99 2.13 2.15 2.13 2.15 2.28 2.42 2.24 2.11 2.01 2.11 2.29 2.58 2.83 2.96 3.02 2.91 2.71 2.48 2.31 2.23 2.18 2.09 1.93 1.76 1.56 1.45 1.41 1.37
3.28 3.45 3.54 3.55 3.51 3.52 3.50 3.33 3.49 3.31 3.21 3.01 2.59 2.36 2.12 2.05 2.15 2.08 2.14 2.14 2.29 2.33 2.33 2.21 2.12 2.18 2.41 2.76 2.94 3.14 3.20 3.10 2.93 2.68 2.44 2.28 2.25 2.19 2.04 1.88 1.72 1.58 1.49
3.92 4.04 3.98 3.98 3.98 4.00 3.85 3.82 3.85 3.62 3.39 3.31 2.86 2.60 2.38 2.14 2.15 2.12 2.10 2.17 2.14 2.03 2.10 2.21 2.32 2.13 2.29 2.49 2.68 2.94 3.23 3.41 3.33 3.08 2.91 2.73 2.55 2.39 2.17 1.97 1.81 1.70 1.59
4.84 4.89 4.71 4.63 4.49 4.37 4.18 4.09 3.92 3.72 3.45 3.39 3.24 2.79 2.26 1.94 1.91 1.83 1.87 2.02 2.02 1.97 2.02 2.10 2.19 2.14 2.04 2.09 2.18 2.47 2.88 3.31 3.56 3.47 3.26 3.04 2.75 2.53 2.36 2.18 2.00 1.88 1.73
5.67 5.72 5.66 5.46 5.25 4.97 4.49 4.12 3.93 3.74 3.41 3.46 3.40 3.27 2.63 2.17 1.80 1.48 1.56 1.63 1.70 1.86 1.85 1.85 1.98 2.11 2.04 2.01 1.83 1.96 2.25 2.66 3.19 3.49 3.44 3.17 2.94 2.74 2.62 2.51 2.36 2.20 2.01
5.80 5.94 5.91 5.69 5.34 4.79 4.26 4.07 3.98 3.84 3.62 3.53 3.39 3.47 2.99 2.51 2.11 1.66 1.45 1.36 1.44 1.51 1.53 1.59 1.68 1.81 1.81 1.87 1.81 1.81 1.93 2.10 2.58 3.07 3.15 2.94 2.76 2.58 2.50 2.47 2.44 2.38 2.28
5.58 5.46 5.28 4.88 4.48 4.14 3.84 3.73 3.76 3.61 3.59 3.45 3.36 3.08 2.85 2.56 2.30 1.92 1.55 1.35 1.35 1.36 1.37 1.35 1.43 1.66 1.75 1.78 1.77 1.75 1.73 1.81 2.09 2.46 2.72 2.74 2.63 2.54 2.49 2.45 2.43 2.47 2.51
4.76 4.38 4.01 3.75 3.65 3.48 3.27 3.18 3.15 3.06 2.93 2.86 2.87 2.84 2.78 2.52 2.21 1.99 1.73 1.51 1.49 1.41 1.40 1.44 1.50 1.59 1.69 1.76 1.78 1.78 1.75 1.65 1.71 1.83 2.04 2.22 2.36 2.45 2.47 2.50 2.54 2.55 2.57
3.98 3.51 3.25 3.02 2.89 2.73 2.51 2.39 2.38 2.42 2.50 2.55 2.60 2.59 2.55 2.52 2.36 2.26 2.08 1.83 1.69 1.65 1.57 1.51 1.58 1.66 1.81 1.92 1.92 2.09 1.82 1.64 1.61 1.61 1.64 1.75 1.91 2.09 2.23 2.36 2.50 2.59 2.67
3.60 3.14 2.70 2.47 2.24 2.04 1.94 1.90 1.86 1.86 1.97 2.11 2.24 2.30 2.28 2.23 2.19 2.22 2.27 2.08 1.84 1.70 1.59 1.57 1.60 1.70 1.75 1.89 2.09 2.27 1.95 1.80 1.66 1.54 1.48 1.50 1.59 1.70 1.82 1.92 2.08 2.23 2.40
2.96 2.63 2.21 1.87 1.64 1.51 1.44 1.49 1.51 1.53 1.58 1.68 1.79 1.94 1.96 1.92 1.98 2.06 2.15 2.22 2.14 1.86 1.60 1.56 1.67 1.73 1.75 1.76 1.99 2.10 1.82 1.85 1.65 1.54 1.48 1.45 1.45 1.49 1.56 1.66 1.82 1.95 2.03
2.06 1.85 1.64 1.46 1.34 1.29 1.28 1.29 1.26 1.26 1.34 1.43 1.50 1.61 1.72 1.75 1.79 1.88 2.00 2.10 2.15 2.04 1.83 1.67 1.68 1.69 1.71 1.76 1.92 1.55 1.49 1.72 1.61 1.53 1.46 1.37 1.31 1.32 1.35 1.39 1.45 1.52 1.59
1.39 1.33 1.24 1.20 1.15 1.08 1.12 1.16 1.12 1.11 1.20 1.23 1.23 1.31 1.42 1.51 1.60 1.69 1.82 1.92 1.97 1.94 1.86 1.68 1.62 1.62 1.61 1.56 1.71 1.39 1.39 1.59 1.48 1.40 1.33 1.29 1.23 1.22 1.23 1.27 1.33 1.33 1.31
1.13 1.10 1.08 1.06 1.03 1.01 1.01 1.00 0.97 0.98 1.04 1.17 1.25 1.29 1.35 1.40 1.47 1.50 1.52 1.58 1.71 1.82 1.90 1.82 1.66 1.62 1.62 1.57 1.50 1.32 1.23 1.21 1.24 1.31 1.27 1.24 1.17 1.12 1.12 1.11 1.08 1.08 1.06
1.02 1.03 1.02 1.00 1.02 1.05 1.06 1.01 0.92 0.91 0.97 1.06 1.14 1.19 1.19 1.19 1.26 1.35 1.41 1.40 1.46 1.57 1.69 1.75 1.66 1.53 1.49 1.49 1.45 1.39 1.18 1.06 1.06 1.11 1.05 1.01 1.02 0.99 0.95 0.95 0.94 0.91 0.89
1.02 0.98 0.93 0.95 1.01 1.04 1.02 0.98 0.93 0.90 0.91 0.96 0.98 0.99 1.00 1.03 1.04 1.07 1.13 1.19 1.22 1.25 1.39 1.44 1.43 1.38 1.34 1.28 1.34 1.33 1.22 1.23 1.05 1.02 0.93 0.86 0.83 0.81 0.78 0.75 0.79 0.83 0.81
0.98 0.98 0.96 0.92 0.91 0.87 0.78 0.73 0.73 0.77 0.77 0.78 0.79 0.78 0.84 0.91 0.93 0.94 0.92 0.96 1.02 1.13 1.22 1.27 1.24 1.25 1.26 1.18 1.21 1.26 1.23 1.17 1.05 0.88 0.91 0.79 0.71 0.65 0.65 0.66 0.65 0.66 0.69
0.83 0.82 0.82 0.77 0.71 0.60 0.52 0.49 0.55 0.57 0.60 0.62 0.65 0.62 0.63 0.72 0.82 0.79 0.73 0.82 0.93 1.05 1.11 1.13 1.08 1.03 1.02 1.08 1.10 1.07 1.06 1.06 1.00 0.88 0.93 0.84 0.77 0.73 0.73 0.71 0.68 0.63 0.64
0.85 0.75 0.71 0.69 0.62 0.48 0.47 0.44 0.48 0.55 0.60 0.61 0.65 0.65 0.59 0.60 0.62 0.60 0.60 0.72 0.88 0.92 0.97 1.03 1.02 1.02 1.02 1.02 1.04 1.05 1.09 1.12 1.13 0.95 0.91 0.84 0.77 0.81 0.79 0.75 0.71 0.64 0.60
0.93 0.90 0.79 0.72 0.69 0.61 0.50 0.43 0.45 0.54 0.61 0.62 0.62 0.61 0.54 0.51 0.57 0.57 0.57 0.62 0.69 0.71 0.79 0.94 1.03 1.01 1.03 1.07 1.12 1.09 1.15 1.20 1.18 1.08 1.10 1.01 0.82 0.77 0.63 0.59 0.63 0.57 0.56
0.91 0.88 0.82 0.74 0.66 0.50 0.37 0.31 0.33 0.44 0.56 0.59 0.58 0.58 0.59 0.58 0.54 0.55 0.54 0.57 0.66 0.73 0.74 0.79 0.95 0.96 0.93 0.99 1.06 1.14 1.21 1.22 1.18 1.14 1.19 1.19 0.89 0.79 0.65 0.69 0.65 0.53 0.50
0.77 0.74 0.68 0.62 0.60 0.47 0.28 0.23 0.26 0.43 0.57 0.55 0.48 0.45 0.48 0.53 0.54 0.52 0.55 0.68 0.75 0.81 0.68 0.69 0.78 0.86 0.88 0.93 0.93 1.01 1.21 1.37 1.32 1.12 1.10 1.19 0.99 0.85 0.75 0.74 0.68 0.60 0.52
0.69 0.61 0.54 0.53 0.52 0.48 0.32 0.26 0.29 0.42 0.51 0.49 0.47 0.44 0.42 0.43 0.43 0.44 0.54 0.69 0.79 0.80 0.72 0.73 0.89 0.98 0.96 1.03 1.01 1.05 1.27 1.36 1.32 1.28 1.11 1.14 1.10 1.07 1.00 0.79 0.73 0.69 0.66